| time (UTC) | temp F | wind direction | speed MPH | gust MPH | rain 1hr in | rain 24hr in | rain mn in | humidity % | barometer mb |
| 20260510094523 | 54 | 290 | 0.0 | 0.0 | 0.00 | 0.00 | 0.00 | 86 | 1014.6 |
| 20260510093005 | 54 | 290 | 0.0 | 0.0 | 0.00 | 0.00 | 0.00 | 86 | 1014.5 |
| 20260510091516 | 54 | 290 | 0.0 | 0.0 | 0.00 | 0.00 | 0.00 | 86 | 1014.3 |
| 20260510090020 | 54 | 290 | 0.0 | 0.0 | 0.00 | 0.00 | 0.00 | 86 | 1014.2 |
| 20260510084513 | 54 | 290 | 0.0 | 2.0 | 0.00 | 0.00 | 0.00 | 87 | 1014.0 |
| 20260510083018 | 54 | 198 | 0.0 | 0.0 | 0.00 | 0.00 | 0.00 | 87 | 1013.8 |
| 20260510081515 | 54 | 323 | 0.0 | 2.0 | 0.00 | 0.00 | 0.00 | 86 | 1014.0 |
| 20260510080006 | 54 | 194 | 0.0 | 2.0 | 0.00 | 0.00 | 0.00 | 86 | 1014.1 |
| 20260510074504 | 54 | 236 | 1.0 | 3.0 | 0.00 | 0.00 | 0.00 | 85 | 1014.1 |
| 20260510073007 | 54 | 281 | 0.0 | 0.0 | 0.00 | 0.00 | 0.00 | 84 | 1014.2 |
| 20260510071521 | 55 | 281 | 0.0 | 0.0 | 0.00 | 0.00 | 0.00 | 84 | 1014.0 |
| 20260510070030 | 55 | 320 | 0.0 | 0.0 | 0.00 | 0.00 | 0.00 | 82 | 1013.9 |
| 20260510064508 | 54 | 311 | 0.0 | 0.0 | 0.00 | 0.00 | 0.00 | 83 | 1013.9 |
| 20260510063027 | 54 | 340 | 0.0 | 3.0 | 0.00 | 0.00 | 0.00 | 85 | 1013.9 |
| 20260510061516 | 54 | 258 | 0.0 | 0.0 | 0.00 | 0.00 | 0.00 | 85 | 1013.7 |
| 20260510060009 | 55 | 258 | 0.0 | 0.0 | 0.00 | 0.00 | 0.00 | 84 | 1013.7 |
| 20260510054524 | 55 | 258 | 0.0 | 0.0 | 0.00 | 0.00 | 0.00 | 84 | 1013.8 |
| 20260510053033 | 55 | 258 | 0.0 | 0.0 | 0.00 | 0.00 | 0.00 | 84 | 1013.9 |
| 20260510051518 | 56 | 258 | 0.0 | 0.0 | 0.00 | 0.00 | 0.00 | 84 | 1013.9 |
| 20260510050017 | 56 | 258 | 0.0 | 0.0 | 0.00 | 0.00 | 0.00 | 84 | 1013.5 |
| 20260510044511 | 56 | 258 | 0.0 | 0.0 | 0.00 | 0.00 | 0.00 | 83 | 1013.8 |
| 20260510043039 | 56 | 258 | 0.0 | 0.0 | 0.00 | 0.00 | 0.00 | 82 | 1013.6 |
| 20260510041512 | 57 | 258 | 0.0 | 0.0 | 0.00 | 0.00 | 0.00 | 79 | 1013.4 |
| 20260510040033 | 57 | 258 | 0.0 | 0.0 | 0.00 | 0.00 | 0.00 | 78 | 1013.1 |
| 20260510034520 | 58 | 258 | 0.0 | 0.0 | 0.00 | 0.00 | 0.00 | 78 | 1013.1 |
| 20260510033020 | 59 | 258 | 0.0 | 0.0 | 0.00 | 0.00 | 0.00 | 76 | 1013.1 |
| 20260510031521 | 59 | 258 | 0.0 | 0.0 | 0.00 | 0.00 | 0.00 | 75 | 1013.0 |
| 20260510030011 | 60 | 258 | 0.0 | 0.0 | 0.00 | 0.00 | 0.00 | 73 | 1013.0 |
| 20260510024521 | 62 | 258 | 0.0 | 0.0 | 0.00 | 0.00 | 0.00 | 72 | 1012.4 |
| 20260510023025 | 63 | 258 | 0.0 | 0.0 | 0.00 | 0.01 | 0.00 | 67 | 1012.1 |
| 20260510021537 | 64 | 258 | 0.0 | 0.0 | 0.00 | 0.01 | 0.00 | 66 | 1011.8 |
| 20260510020028 | 66 | 258 | 0.0 | 0.0 | 0.00 | 0.01 | 0.00 | 64 | 1011.4 |
| 20260510014532 | 68 | 258 | 0.0 | 0.0 | 0.00 | 0.01 | 0.00 | 60 | 1011.1 |
| 20260510013022 | 70 | 258 | 0.0 | 0.0 | 0.00 | 0.01 | 0.00 | 55 | 1011.0 |
| 20260510011535 | 72 | 258 | 0.0 | 0.0 | 0.00 | 0.01 | 0.00 | 51 | 1010.9 |
| 20260510010026 | 73 | 258 | 0.0 | 0.0 | 0.00 | 0.01 | 0.00 | 46 | 1010.7 |
| 20260510004508 | 75 | 258 | 0.0 | 0.0 | 0.00 | 0.01 | 0.00 | 44 | 1010.6 |
| 20260510003023 | 76 | 258 | 0.0 | 0.0 | 0.00 | 0.01 | 0.00 | 43 | 1010.4 |
| 20260510001505 | 77 | 258 | 0.0 | 0.0 | 0.00 | 0.01 | 0.00 | 43 | 1010.4 |
| 20260510000010 | 78 | 258 | 0.0 | 0.0 | 0.00 | 0.01 | 0.00 | 44 | 1010.4 |
| 20260509234513 | 80 | 258 | 0.0 | 0.0 | 0.00 | 0.01 | 0.00 | 38 | 1010.5 |
| 20260509233033 | 82 | 258 | 0.0 | 0.0 | 0.00 | 0.01 | 0.00 | 35 | 1010.4 |
| 20260509231523 | 81 | 258 | 0.0 | 2.0 | 0.00 | 0.01 | 0.00 | 39 | 1010.6 |
| 20260509230009 | 81 | 248 | 0.0 | 69.0 | 0.00 | 0.01 | 0.00 | 38 | 1010.4 |
| 20260509224511 | 81 | 248 | 1.0 | 5.0 | 0.00 | 0.01 | 0.00 | 37 | 1010.4 |
| 20260509223016 | 82 | 267 | 2.0 | 4.0 | 0.00 | 0.01 | 0.00 | 34 | 1010.4 |
| 20260509221523 | 82 | 298 | 0.0 | 3.0 | 0.00 | 0.01 | 0.00 | 31 | 1010.4 |
| 20260509220021 | 82 | 303 | 1.0 | 6.0 | 0.00 | 0.01 | 0.00 | 31 | 1010.3 |
| 20260509214508 | 82 | 352 | 1.0 | 4.0 | 0.00 | 0.01 | 0.00 | 30 | 1010.4 |
| 20260509213023 | 82 | 240 | 1.0 | 3.0 | 0.00 | 0.01 | 0.00 | 32 | 1010.6 |
| 20260509211528 | 82 | 264 | 2.0 | 9.0 | 0.00 | 0.01 | 0.00 | 33 | 1010.6 |
| 20260509210025 | 84 | 270 | 2.0 | 3.0 | 0.00 | 0.01 | 0.00 | 35 | 1010.4 |
| 20260509204523 | 84 | 97 | 0.0 | 2.0 | 0.00 | 0.01 | 0.00 | 40 | 1010.7 |
| 20260509203016 | 82 | 248 | 1.0 | 3.0 | 0.00 | 0.01 | 0.00 | 36 | 1010.8 |
| 20260509201516 | 82 | 15 | 1.0 | 7.0 | 0.00 | 0.01 | 0.00 | 31 | 1011.1 |
| 20260509200029 | 82 | 296 | 1.0 | 3.0 | 0.00 | 0.01 | 0.00 | 32 | 1011.1 |
| 20260509194513 | 81 | 286 | 2.0 | 5.0 | 0.00 | 0.01 | 0.00 | 33 | 1011.3 |
| 20260509193031 | 82 | 329 | 3.0 | 7.0 | 0.00 | 0.01 | 0.00 | 35 | 1011.4 |
| 20260509191518 | 82 | 252 | 1.0 | 7.0 | 0.00 | 0.01 | 0.00 | 38 | 1011.3 |
| 20260509190019 | 81 | 236 | 0.0 | 6.0 | 0.00 | 0.01 | 0.00 | 38 | 1011.4 |
| 20260509184510 | 81 | 312 | 2.0 | 8.0 | 0.00 | 0.01 | 0.00 | 35 | 1011.5 |
| 20260509183029 | 80 | 208 | 2.0 | 9.0 | 0.00 | 0.01 | 0.00 | 37 | 1011.4 |
| 20260509181502 | 81 | 257 | 0.0 | 4.0 | 0.00 | 0.01 | 0.00 | 41 | 1011.5 |
| 20260509180003 | 80 | 217 | 0.0 | 6.0 | 0.00 | 0.01 | 0.00 | 34 | 1011.7 |
| 20260509174520 | 80 | 262 | 2.0 | 8.0 | 0.00 | 0.01 | 0.00 | 39 | 1011.7 |
| 20260509173007 | 80 | 286 | 3.0 | 10.0 | 0.00 | 0.01 | 0.00 | 41 | 1011.7 |
| 20260509171506 | 80 | 267 | 2.0 | 6.0 | 0.00 | 0.01 | 0.00 | 45 | 1011.9 |
| 20260509170009 | 79 | 332 | 3.0 | 8.0 | 0.00 | 0.01 | 0.00 | 46 | 1011.9 |
| 20260509164521 | 79 | 166 | 2.0 | 7.0 | 0.00 | 0.01 | 0.00 | 47 | 1011.9 |
| 20260509163004 | 78 | 259 | 0.0 | 4.0 | 0.00 | 0.01 | 0.00 | 55 | 1011.8 |
| 20260509161510 | 78 | 237 | 2.0 | 5.0 | 0.00 | 0.01 | 0.00 | 51 | 1011.8 |
| 20260509160013 | 77 | 78 | 0.0 | 2.0 | 0.00 | 0.01 | 0.00 | 51 | 1011.8 |
| 20260509154503 | 76 | 245 | 2.0 | 4.0 | 0.00 | 0.01 | 0.00 | 53 | 1011.7 |
| 20260509153005 | 75 | 275 | 0.0 | 3.0 | 0.00 | 0.01 | 0.00 | 60 | 1011.7 |
| 20260509151503 | 73 | 291 | 3.0 | 6.0 | 0.00 | 0.01 | 0.00 | 57 | 1011.7 |
| 20260509150004 | 72 | 230 | 2.0 | 5.0 | 0.00 | 0.01 | 0.00 | 59 | 1011.8 |
| 20260509144519 | 71 | 204 | 2.0 | 6.0 | 0.00 | 0.01 | 0.00 | 67 | 1011.9 |
| 20260509143007 | 71 | 283 | 1.0 | 3.0 | 0.00 | 0.01 | 0.00 | 70 | 1011.8 |
| 20260509141506 | 67 | 236 | 1.0 | 4.0 | 0.00 | 0.01 | 0.00 | 75 | 1011.7 |
| 20260509140012 | 66 | 291 | 2.0 | 3.0 | 0.00 | 0.01 | 0.00 | 78 | 1011.6 |
| 20260509134514 | 65 | 232 | 1.0 | 3.0 | 0.00 | 0.01 | 0.00 | 79 | 1011.5 |
| 20260509133018 | 64 | 156 | 0.0 | 0.0 | 0.00 | 0.01 | 0.00 | 81 | 1011.5 |
| 20260509131503 | 62 | 32 | 0.0 | 0.0 | 0.00 | 0.01 | 0.00 | 84 | 1011.4 |
| 20260509130011 | 57 | 32 | 0.0 | 0.0 | 0.00 | 0.01 | 0.00 | 88 | 1011.3 |
| 20260509124510 | 55 | 342 | 0.0 | 0.0 | 0.00 | 0.01 | 0.00 | 91 | 1011.5 |
| 20260509123017 | 53 | 342 | 0.0 | 0.0 | 0.00 | 0.01 | 0.00 | 92 | 1011.4 |
| 20260509121513 | 50 | 342 | 0.0 | 0.0 | 0.00 | 0.01 | 0.00 | 93 | 1011.3 |
| 20260509120005 | 47 | 342 | 0.0 | 0.0 | 0.00 | 0.01 | 0.00 | 92 | 1011.2 |
| 20260509114508 | 46 | 342 | 0.0 | 0.0 | 0.00 | 0.01 | 0.00 | 91 | 1010.9 |
| 20260509113015 | 46 | 342 | 0.0 | 0.0 | 0.00 | 0.01 | 0.00 | 91 | 1010.7 |
| 20260509111520 | 46 | 342 | 0.0 | 0.0 | 0.00 | 0.01 | 0.00 | 91 | 1010.6 |
| 20260509110015 | 47 | 342 | 0.0 | 0.0 | 0.00 | 0.01 | 0.00 | 91 | 1010.5 |
| 20260509104512 | 47 | 342 | 0.0 | 0.0 | 0.00 | 0.01 | 0.00 | 91 | 1010.4 |
| 20260509103012 | 47 | 342 | 0.0 | 0.0 | 0.00 | 0.01 | 0.00 | 90 | 1010.6 |
| 20260509101538 | 48 | 342 | 0.0 | 0.0 | 0.00 | 0.01 | 0.00 | 91 | 1010.5 |
| 20260509100026 | 48 | 342 | 0.0 | 0.0 | 0.00 | 0.01 | 0.00 | 91 | 1010.4 |